Météo par heure à Kyushnur

Ce jour, 25 Juillet, Dimanche

Heure Température Précipitation Vent Pression Humidité
00:00 +9°C° 0 mm 1 m/s 750 mmHg 60%
01:00 +9°C° 0 mm 1 m/s 750 mmHg 61%
02:00 +8°C° 0 mm 1 m/s 750 mmHg 62%
03:00 +8°C° 0 mm 1 m/s 751 mmHg 63%
04:00 +9°C° 0 mm 1 m/s 751 mmHg 61%
05:00 +11°C° 0 mm 1 m/s 752 mmHg 59%
06:00 +12°C° 0 mm 1 m/s 752 mmHg 57%
07:00 +14°C° 0 mm 1 m/s 752 mmHg 52%
08:00 +16°C° 0 mm 1 m/s 752 mmHg 46%
09:00 +18°C° 0 mm 2 m/s 752 mmHg 41%
10:00 +19°C° 0 mm 2 m/s 753 mmHg 38%
11:00 +20°C° 0 mm 2 m/s 753 mmHg 36%
12:00 +20°C° 0 mm 2 m/s 753 mmHg 33%
13:00 +21°C° 0 mm 2 m/s 753 mmHg 33%
14:00 +21°C° 0 mm 2 m/s 753 mmHg 32%
15:00 +23°C° 0 mm 2 m/s 753 mmHg 31%
16:00 +22°C° 0 mm 1 m/s 753 mmHg 37%
17:00 +22°C° 0 mm 1 m/s 753 mmHg 43%
18:00 +21°C° 0 mm 1 m/s 753 mmHg 49%
19:00 +20°C° 0 mm 1 m/s 753 mmHg 50%
20:00 +19°C° 0 mm 1 m/s 753 mmHg 50%
21:00 +18°C° 0 mm 1 m/s 753 mmHg 50%
22:00 +15°C° 0 mm 1 m/s 753 mmHg 54%
23:00 +14°C° 0 mm 2 m/s 753 mmHg 57%

Demain, 26 Juillet, Lundi

Heure Température Précipitation Vent Pression Humidité
00:00 +13°C° 0 mm 2 m/s 753 mmHg 60%
01:00 +13°C° 0 mm 2 m/s 754 mmHg 62%
02:00 +13°C° 0 mm 2 m/s 754 mmHg 63%
03:00 +13°C° 0 mm 2 m/s 754 mmHg 64%
04:00 +14°C° 0 mm 2 m/s 754 mmHg 64%
05:00 +15°C° 0 mm 2 m/s 754 mmHg 64%
06:00 +15°C° 0 mm 2 m/s 754 mmHg 63%
07:00 +17°C° 0 mm 2 m/s 754 mmHg 59%
08:00 +18°C° 0 mm 2 m/s 754 mmHg 54%
09:00 +19°C° 0 mm 2 m/s 754 mmHg 49%
10:00 +21°C° 0 mm 3 m/s 754 mmHg 45%
11:00 +22°C° 0 mm 3 m/s 754 mmHg 41%
12:00 +24°C° 0 mm 3 m/s 754 mmHg 36%
13:00 +24°C° 0 mm 3 m/s 754 mmHg 39%
14:00 +23°C° 0 mm 2 m/s 753 mmHg 42%
15:00 +23°C° 0 mm 2 m/s 753 mmHg 46%
16:00 +23°C° 0 mm 2 m/s 753 mmHg 47%
17:00 +23°C° 0 mm 2 m/s 753 mmHg 49%
18:00 +23°C° 0 mm 2 m/s 753 mmHg 51%
19:00 +20°C° 0 mm 2 m/s 753 mmHg 55%
20:00 +18°C° 0 mm 2 m/s 752 mmHg 59%
21:00 +16°C° 0 mm 3 m/s 752 mmHg 63%
22:00 +16°C° 0 mm 2 m/s 752 mmHg 64%
23:00 +16°C° 0 mm 2 m/s 752 mmHg 65%

Après-demain, 27 Juillet, Mardi

Heure Température Précipitation Vent Pression Humidité
00:00 +16°C° 0 mm 2 m/s 752 mmHg 67%
01:00 +15°C° 0 mm 2 m/s 752 mmHg 68%
02:00 +15°C° 0 mm 2 m/s 752 mmHg 70%
03:00 +14°C° 0 mm 2 m/s 752 mmHg 72%
04:00 +15°C° 0.1 mm 2 m/s 752 mmHg 74%
05:00 +15°C° 0.1 mm 2 m/s 752 mmHg 77%
06:00 +16°C° 0.1 mm 2 m/s 752 mmHg 79%
07:00 +18°C° 0 mm 3 m/s 752 mmHg 73%
08:00 +19°C° 0 mm 3 m/s 752 mmHg 66%
09:00 +21°C° 0 mm 4 m/s 752 mmHg 60%
10:00 +22°C° 0.1 mm 4 m/s 752 mmHg 55%
11:00 +22°C° 0.1 mm 4 m/s 751 mmHg 50%
12:00 +23°C° 0.1 mm 5 m/s 751 mmHg 45%
13:00 +23°C° 0 mm 5 m/s 751 mmHg 44%
14:00 +23°C° 0 mm 5 m/s 751 mmHg 42%
15:00 +23°C° 0 mm 5 m/s 751 mmHg 41%
16:00 +22°C° 0 mm 5 m/s 751 mmHg 42%
17:00 +22°C° 0 mm 4 m/s 751 mmHg 43%
18:00 +21°C° 0 mm 4 m/s 751 mmHg 43%
19:00 +19°C° 0 mm 3 m/s 751 mmHg 50%
20:00 +17°C° 0 mm 2 m/s 751 mmHg 56%
21:00 +14°C° 0 mm 1 m/s 751 mmHg 63%
22:00 +14°C° 0 mm 1 m/s 751 mmHg 64%
23:00 +13°C° 0 mm 1 m/s 751 mmHg 65%

28 Juillet, Mercredi

Heure Température Précipitation Vent Pression Humidité
00:00 +13°C° 0 mm 1 m/s 751 mmHg 66%
01:00 +12°C° 0 mm 1 m/s 751 mmHg 68%
02:00 +12°C° 0 mm 1 m/s 751 mmHg 69%
03:00 +12°C° 0 mm 1 m/s 751 mmHg 70%
04:00 +13°C° 0 mm 1 m/s 750 mmHg 68%
05:00 +14°C° 0 mm 1 m/s 750 mmHg 67%
06:00 +15°C° 0 mm 1 m/s 750 mmHg 66%
07:00 +17°C° 0 mm 2 m/s 750 mmHg 60%
08:00 +19°C° 0 mm 2 m/s 750 mmHg 54%
09:00 +21°C° 0 mm 2 m/s 750 mmHg 48%
10:00 +22°C° 0 mm 3 m/s 750 mmHg 44%
11:00 +25°C° 0 mm 3 m/s 749 mmHg 39%
12:00 +26°C° 0 mm 4 m/s 749 mmHg 34%
13:00 +26°C° 0 mm 4 m/s 749 mmHg 33%
14:00 +27°C° 0 mm 3 m/s 748 mmHg 32%
15:00 +28°C° 0 mm 3 m/s 748 mmHg 31%
16:00 +27°C° 0 mm 3 m/s 748 mmHg 37%
17:00 +26°C° 0 mm 3 m/s 747 mmHg 42%
18:00 +26°C° 0 mm 2 m/s 747 mmHg 48%
19:00 +23°C° 0 mm 2 m/s 746 mmHg 55%
20:00 +20°C° 0 mm 3 m/s 746 mmHg 63%
21:00 +18°C° 0 mm 3 m/s 746 mmHg 70%
22:00 +18°C° 0 mm 3 m/s 746 mmHg 74%
23:00 +17°C° 0 mm 3 m/s 745 mmHg 77%

29 Juillet, Jeudi

Heure Température Précipitation Vent Pression Humidité
00:00 +17°C° 0 mm 3 m/s 745 mmHg 80%
01:00 +17°C° 0.1 mm 3 m/s 745 mmHg 82%
02:00 +16°C° 0.1 mm 2 m/s 744 mmHg 83%
03:00 +16°C° 0.1 mm 2 m/s 744 mmHg 85%
04:00 +17°C° 0.1 mm 2 m/s 744 mmHg 85%
05:00 +17°C° 0.1 mm 2 m/s 743 mmHg 85%
06:00 +18°C° 0.1 mm 2 m/s 743 mmHg 84%
07:00 +19°C° 0.1 mm 2 m/s 743 mmHg 83%
08:00 +19°C° 0.1 mm 3 m/s 743 mmHg 81%
09:00 +20°C° 0.1 mm 3 m/s 743 mmHg 80%
10:00 +19°C° 0.4 mm 3 m/s 743 mmHg 84%
11:00 +19°C° 0.4 mm 3 m/s 743 mmHg 88%
12:00 +18°C° 0.4 mm 3 m/s 743 mmHg 91%
13:00 +19°C° 0.2 mm 3 m/s 743 mmHg 91%
14:00 +19°C° 0.2 mm 3 m/s 743 mmHg 90%
15:00 +19°C° 0.2 mm 2 m/s 742 mmHg 89%
16:00 +19°C° 0 mm 2 m/s 742 mmHg 88%
17:00 +19°C° 0 mm 2 m/s 742 mmHg 86%
18:00 +19°C° 0 mm 2 m/s 742 mmHg 84%
19:00 +19°C° 0 mm 1 m/s 742 mmHg 88%
20:00 +18°C° 0 mm 1 m/s 742 mmHg 92%
21:00 +16°C° 0 mm 1 m/s 742 mmHg 96%
22:00 +16°C° 0 mm 1 m/s 742 mmHg 96%
23:00 +15°C° 0 mm 1 m/s 742 mmHg 96%

30 Juillet, Vendredi

Heure Température Précipitation Vent Pression Humidité
00:00 +15°C° 0 mm 1 m/s 742 mmHg 96%
01:00 +15°C° 0 mm 1 m/s 742 mmHg 96%
02:00 +15°C° 0 mm 1 m/s 743 mmHg 96%
03:00 +14°C° 0 mm 1 m/s 743 mmHg 96%
04:00 +15°C° 0 mm 1 m/s 743 mmHg 94%
05:00 +16°C° 0 mm 1 m/s 743 mmHg 92%
06:00 +18°C° 0 mm 1 m/s 744 mmHg 90%
07:00 +20°C° 0 mm 1 m/s 744 mmHg 81%
08:00 +21°C° 0 mm 2 m/s 744 mmHg 71%
09:00 +24°C° 0 mm 2 m/s 745 mmHg 61%
10:00 +25°C° 0 mm 2 m/s 745 mmHg 53%
11:00 +26°C° 0 mm 2 m/s 745 mmHg 45%
12:00 +27°C° 0 mm 2 m/s 745 mmHg 37%
13:00 +27°C° 0 mm 2 m/s 745 mmHg 36%
14:00 +28°C° 0 mm 2 m/s 746 mmHg 35%
15:00 +28°C° 0 mm 2 m/s 746 mmHg 33%
16:00 +27°C° 0 mm 1 m/s 746 mmHg 40%
17:00 +26°C° 0 mm 1 m/s 746 mmHg 46%
18:00 +23°C° 0 mm 0 m/s 746 mmHg 52%
19:00 +24°C° 0 mm 1 m/s 746 mmHg 55%
20:00 +22°C° 0 mm 1 m/s 746 mmHg 57%
21:00 +19°C° 0 mm 2 m/s 747 mmHg 60%
22:00 +18°C° 0 mm 2 m/s 747 mmHg 61%
23:00 +18°C° 0 mm 2 m/s 747 mmHg 63%
Voir plus

Nous avons besoin de votre consentement

Meteoprog et ses fournisseurs de services peuvent stocker et accéder à des données personnelles telles que des cookies, des identifiants d'appareils ou d'autres technologies similaires sur votre appareil et traiter ces données pour personnaliser le contenu et les publicités, ainsi que pour fournir des fonctionnalités de médias sociaux et analyser le trafic.

  • Stocker et/ou accéder à des informations sur votre appareil

    Des cookies, des identifiants d'appareils ou d'autres informations peuvent être stockés ou accessibles sur votre appareil aux fins indiquées ci-dessus.

  • Annonces et contenus personnalisés, mesure des annonces et des contenus, connaissance de l'audience et développement de produits

    Les annonces et le contenu peuvent être personnalisés en fonction d'un profil. D'autres données peuvent être ajoutées pour mieux personnaliser les annonces et le contenu. Les performances des publicités et du contenu peuvent être mesurées. Il est possible d'obtenir des informations sur le public qui a vu les publicités et le contenu. Ces données peuvent être utilisées pour développer ou améliorer l'expérience de l'utilisateur, les systèmes et les logiciels.

En cliquant sur "J'accepte", vous autorisez l'utilisation de cookies, des identifiants d'appareils, des balises web ou d'autres technologies similaires. Vos paramètres peuvent être modifiés dans le navigateur de votre appareil.

Dans certains cas, des intérêts légitimes peuvent être invoqués plutôt qu'un consentement. Vous pouvez en savoir plus à ce sujet dans notre Politique de confidentialité et de cookies.